Location: Antioch Church
(34.9543°N, 88.5145°W)
Time: 03:39:07
(UTC+00:00)

Meteor 1-19 Rocket - Pass Details

Date: 11 December 2019
Orbit: 816 x 918 km, 81.2° (Epoch: 17 January)

Event Time Altitude Azimuth Distance (km) Brightness Sun altitude
Rises 00:20:29 0° 183° (S) 3,401 7.6 -19.5°
Reaches altitude 10° 00:22:55 10° 182° (S) 2,455 6.8 -20.0°
Maximum altitude 00:28:27 77° 96° (E) 853 4.0 -21.1°
Enters shadow 00:32:31 19° 13° (NNE) 1,897 5.8 -21.9°
